Weather History for KMQB - February, 2012

Change the Weather History Date:

Tuesday, February 7, 2012

  Actual Average (KBRL) Record (KBRL)
Temperature  
Mean Temperature 29 °F 28 °F  
Max Temperature 34 °F 37 °F 66 °F (2009)
Min Temperature 24 °F 19 °F -11 °F (2014)
Degree Days  
Heating Degree Days 36 37  
Month to date heating degree days 264  
Since 1 July heating degree days 3665  
Cooling Degree Days 0 0  
Month to date cooling degree days 0  
Year to date cooling degree days 0  
Moisture  
Dew Point 29 °F    
Average Humidity 96    
Maximum Humidity 100    
Minimum Humidity 90    
Precipitation  
Precipitation 0.00 in 0.05 in 0.73 in (2013)
Month to date precipitation 0.33  
Year to date precipitation 1.57  
Sea Level Pressure  
Sea Level Pressure 30.28 in    
Wind  
Wind Speed 4 mph (NE)    
Max Wind Speed 14 mph    
Max Gust Speed -    
Visibility 3 miles    
Events Snow    
T = Trace of Precipitation, MM = Missing Value Source: NWS Daily Summary

Daily Weather History Graph

Daily Weather History Graph

Search for Another Location

Airport or City:

Trip Planner

Search our weather history database for the weather conditions in past years. The results will help you decide how hot, cold, wet, or windy it might be!

Date:

Astronomy

Feb. 07, 2012 Rise Set
Actual Time 7:06 AM CST 5:27 PM CST
Civil Twilight 6:38 AM CST 5:56 PM CST
Nautical Twilight 6:05 AM CST 6:28 PM CST
Astronomical Twilight 5:33 AM CST 7:00 PM CST
Moon 5:38 PM CST (2/7) 6:35 AM CST (2/7)
Length of Visible Light 11h 18m
Length of Day
10h 21m
Full, 100% of the Moon is Illuminated
Feb 7
Full
Feb 7
Full
Feb 14
Last Quarter
Feb 21
New
Feb 29
First Quarter

Hourly Weather History & Observations

Time (CST) Temp. Windchill Dew Point Humidity Pressure Visibility Wind Dir Wind Speed Gust Speed Precip Events Conditions
12:15 AM 27.5 °F - 27.3 °F 99% 30.20 in 4.0 mi Calm Calm - N/A   Clear
12:35 AM 26.1 °F - 25.5 °F 98% 30.20 in 5.0 mi Calm Calm - N/A   Clear
12:55 AM 25.7 °F - 25.2 °F 98% 30.20 in 4.0 mi Calm Calm - N/A   Clear
1:15 AM 25.7 °F - 25.3 °F 99% 30.20 in 5.0 mi Calm Calm - N/A   Clear
1:35 AM 26.6 °F - 26.2 °F 99% 30.20 in 5.0 mi Calm Calm - N/A   Clear
1:55 AM 25.2 °F - 24.6 °F 98% 30.22 in 5.0 mi Calm Calm - N/A   Clear
2:15 AM 24.8 °F - 24.1 °F 97% 30.22 in 7.0 mi Calm Calm - N/A   Clear
2:35 AM 26.2 °F - 25.7 °F 98% 30.21 in 7.0 mi Calm Calm - N/A   Clear
2:55 AM 24.8 °F - 24.1 °F 97% 30.20 in 7.0 mi Calm Calm - N/A   Clear
3:15 AM 24.6 °F - 23.7 °F 96% 30.20 in 7.0 mi Calm Calm - N/A   Clear
3:35 AM 24.4 °F - 23.5 °F 96% 30.20 in 7.0 mi Calm Calm - N/A   Clear
3:55 AM 26.2 °F - 25.7 °F 98% 30.20 in 5.0 mi Calm Calm - N/A   Clear
4:15 AM 26.4 °F - 25.7 °F 97% 30.21 in 5.0 mi Calm Calm - N/A   Clear
4:35 AM 26.4 °F - 25.7 °F 97% 30.22 in 5.0 mi Calm Calm - N/A   Scattered Clouds
4:55 AM 26.4 °F - 25.7 °F 97% 30.23 in 5.0 mi Calm Calm - N/A   Mostly Cloudy
5:15 AM 26.4 °F 20.9 °F 25.7 °F 97% 30.23 in 5.0 mi NNE 4.6 mph - N/A   Scattered Clouds
5:35 AM 26.6 °F 21.2 °F 25.9 °F 97% 30.23 in 5.0 mi North 4.6 mph - N/A   Scattered Clouds
5:55 AM 27.5 °F 19.3 °F 27.0 °F 98% 30.23 in 5.0 mi NE 8.1 mph - N/A   Scattered Clouds
6:15 AM 28.2 °F 20.2 °F 27.5 °F 97% 30.24 in 5.0 mi NE 8.1 mph - N/A   Mostly Cloudy
6:35 AM 28.0 °F 20.0 °F 27.3 °F 97% 30.25 in 4.0 mi NE 8.1 mph - N/A   Mostly Cloudy
6:55 AM 28.8 °F 20.9 °F 28.0 °F 97% 30.26 in 3.0 mi NE 8.1 mph - N/A   Overcast
7:15 AM 28.8 °F 20.9 °F 28.2 °F 98% 30.27 in 1.2 mi NE 8.1 mph - N/A   Overcast
7:35 AM 28.9 °F 20.4 °F 28.4 °F 98% 30.28 in 1.2 mi NE 9.2 mph - N/A   Overcast
7:55 AM 28.9 °F 19.8 °F 28.8 °F 99% 30.28 in 1.2 mi NE 10.4 mph - N/A   Overcast
8:15 AM 29.3 °F 20.2 °F 29.1 °F 99% 30.28 in 1.5 mi NE 10.4 mph - N/A   Overcast
8:35 AM 29.3 °F 20.2 °F 29.1 °F 99% 30.29 in 1.2 mi NE 10.4 mph - N/A   Overcast
8:55 AM 29.3 °F 21.5 °F 29.1 °F 99% 30.30 in 1.2 mi NNE 8.1 mph - N/A   Overcast
9:15 AM 29.7 °F 22.0 °F 29.3 °F 99% 30.32 in 1.0 mi NE 8.1 mph - N/A   Overcast
9:35 AM 30.2 °F 22.6 °F 30.2 °F 100% 30.32 in 0.8 mi NE 8.1 mph - N/A   Overcast
9:55 AM 30.2 °F 22.6 °F 30.2 °F 100% 30.33 in 0.8 mi NE 8.1 mph - N/A   Overcast
10:15 AM 30.6 °F 22.4 °F 30.6 °F 100% 30.33 in 1.5 mi NE 9.2 mph - N/A   Overcast
10:35 AM 30.7 °F 22.0 °F 30.7 °F 100% 30.33 in 1.2 mi NE 10.4 mph - N/A   Overcast
10:55 AM 31.1 °F 20.9 °F 30.9 °F 99% 30.33 in 2.5 mi ENE 13.8 mph - N/A   Overcast
11:15 AM 31.6 °F 23.1 °F 30.4 °F 95% 30.33 in 3.0 mi ENE 10.4 mph - N/A   Overcast
11:35 AM 32.0 °F 24.2 °F 30.6 °F 94% 30.33 in 3.0 mi ENE 9.2 mph - N/A   Overcast
11:55 AM 32.0 °F 23.6 °F 30.6 °F 94% 30.33 in 3.0 mi ENE 10.4 mph - N/A   Overcast
12:15 PM 32.0 °F 23.6 °F 30.9 °F 96% 30.32 in 3.0 mi ENE 10.4 mph - N/A   Overcast
12:35 PM 32.0 °F 24.8 °F 31.1 °F 96% 30.33 in 3.0 mi ENE 8.1 mph - N/A   Overcast
12:55 PM 32.4 °F 26.9 °F 31.1 °F 95% 30.33 in 3.0 mi ENE 5.8 mph - N/A   Overcast
1:15 PM 32.9 °F 26.7 °F 31.6 °F 95% 30.33 in 3.0 mi NE 6.9 mph - N/A   Overcast
1:35 PM 33.1 °F 26.9 °F 32.0 °F 96% 30.33 in 2.5 mi NE 6.9 mph - N/A   Overcast
1:55 PM 33.6 °F 26.8 °F 32.0 °F 94% 30.33 in 3.0 mi ENE 8.1 mph - N/A   Overcast
2:15 PM 34.2 °F 25.7 °F 32.0 °F 92% 30.33 in 3.0 mi NE 11.5 mph - N/A   Overcast
2:35 PM 34.7 °F 26.4 °F 32.0 °F 90% 30.33 in 3.0 mi NE 11.5 mph - N/A   Overcast
2:55 PM 34.5 °F 26.2 °F 32.0 °F 90% 30.34 in 3.0 mi NE 11.5 mph - N/A   Overcast
3:15 PM 34.7 °F 27.5 °F 32.0 °F 90% 30.34 in 3.0 mi NE 9.2 mph - N/A   Overcast
3:35 PM 34.7 °F 26.9 °F 32.2 °F 91% 30.35 in 3.0 mi NE 10.4 mph - N/A   Overcast
3:55 PM 34.2 °F 27.5 °F 32.5 °F 94% 30.35 in 2.0 mi NE 8.1 mph - N/A   Overcast
4:15 PM 34.2 °F 26.8 °F 32.7 °F 94% 30.35 in 2.5 mi NE 9.2 mph - N/A   Overcast
4:35 PM 34.0 °F 28.8 °F 32.9 °F 96% 30.35 in 2.0 mi NE 5.8 mph - N/A   Overcast
4:55 PM 34.0 °F 28.0 °F 33.1 °F 96% 30.35 in 1.8 mi NE 6.9 mph - N/A   Overcast
5:15 PM 34.0 °F 28.0 °F 33.3 °F 97% 30.35 in 2.5 mi NE 6.9 mph - N/A   Overcast
5:35 PM 34.0 °F 27.2 °F 33.1 °F 96% 30.35 in 2.5 mi NE 8.1 mph - N/A   Overcast
5:55 PM 34.0 °F 28.0 °F 33.3 °F 97% 30.35 in 3.0 mi NE 6.9 mph - N/A   Overcast
6:15 PM 34.0 °F 27.2 °F 33.4 °F 98% 30.36 in 2.5 mi NE 8.1 mph - N/A Snow Light Snow
6:35 PM 33.8 °F 24.8 °F 33.1 °F 97% 30.36 in 1.8 mi NE 12.7 mph - N/A Snow Light Snow
6:55 PM 33.3 °F 23.7 °F 32.9 °F 99% 30.37 in 1.8 mi NNE 13.8 mph - N/A Snow Light Snow
7:15 PM 33.3 °F 23.7 °F 32.9 °F 99% 30.37 in 2.5 mi NNE 13.8 mph - N/A Snow Light Snow
7:35 PM 33.1 °F 23.9 °F 32.5 °F 98% 30.38 in 3.0 mi NE 12.7 mph - N/A Snow Light Snow
7:55 PM 32.9 °F 24.1 °F 32.4 °F 98% 30.38 in 2.5 mi NE 11.5 mph - N/A Snow Light Snow
8:15 PM 32.9 °F 23.2 °F 32.0 °F 96% 30.38 in 4.0 mi NNE 13.8 mph - N/A   Overcast
8:35 PM 32.5 °F 22.7 °F 31.6 °F 96% 30.39 in 7.0 mi NNE 13.8 mph - N/A   Overcast
8:55 PM 32.4 °F 22.1 °F 31.1 °F 95% 30.39 in 10.0 mi NNE 15.0 mph - N/A   Overcast
9:15 PM 32.4 °F 22.1 °F 30.9 °F 94% 30.40 in 10.0 mi NE 15.0 mph - N/A   Overcast
9:35 PM 32.4 °F 24.0 °F 30.7 °F 94% 30.41 in 10.0 mi NNE 10.4 mph - N/A   Overcast
9:55 PM 32.0 °F 24.2 °F 30.4 °F 94% 30.41 in 10.0 mi NNE 9.2 mph - N/A   Overcast
10:15 PM 32.0 °F 23.6 °F 30.2 °F 93% 30.42 in 10.0 mi NNE 10.4 mph - N/A   Overcast
10:35 PM 32.0 °F 23.0 °F 30.2 °F 93% 30.42 in 10.0 mi NNE 11.5 mph - N/A   Overcast
10:55 PM 32.0 °F 23.6 °F 30.2 °F 93% 30.42 in 7.0 mi NNE 10.4 mph - N/A Snow Light Snow
11:15 PM 32.0 °F 24.8 °F 30.0 °F 92% 30.42 in 2.5 mi NNE 8.1 mph - N/A Snow Light Snow
11:35 PM 32.0 °F 23.6 °F 30.2 °F 93% 30.42 in 2.0 mi NNE 10.4 mph - N/A Snow Light Snow
11:55 PM 31.5 °F 22.3 °F 29.3 °F 92% 30.42 in 5.0 mi NNE 11.5 mph - N/A Snow Light Snow